Location: Gajan
(43.0218°N, 1.1244°E)
Time: 07:24:53
(UTC+00:00)

Meteor 1-4 Rocket - Pass Details

Date: 22 April 2021
Orbit: 448 x 499 km, 81.2° (Epoch: 07 May)

Event Time Altitude Azimuth Distance (km) Brightness Sun altitude
Exits shadow 20:50:33 35° 47° (NE) 759 3.4 -20.5°
Drops below altitude 10° 20:52:56 10° 21° (NNE) 1,618 5.5 -20.8°
Sets 20:55:04 0° 16° (NNE) 2,507 6.5 -21.1°
